Skip Page Navigation
NASA JPL Caltech
NASA Logo - Jet Propulsion Laboratory + View the NASA Portal
+ Center for Near-Earth Object Studies
JPL Home Earth Solar System Stars & Galaxies Technology
JPL Solar System Dynamics
BODIES ORBITS EPHEMERIDES TOOLS PHYSICAL DATA DISCOVERY FAQ SITE MAP
JPL Small-Body Database Browser
Search: [ help ]  
447580 (2006 TN106)
Classification: Main-belt Asteroid          SPK-ID: 2447580
Ephemeris | Orbit Diagram | Orbital Elements | Mission Design | Physical Parameters | Discovery Circumstances ]

[ show orbit diagram ]
Orbital Elements at Epoch 2459000.5 (2020-May-31.0) TDB
Reference: JPL 11 (heliocentric ecliptic J2000)
 Element Value Uncertainty (1-sigma)   Units 
e .1112705873361337 6.5465e-08  
a 2.717204365764804 3.3087e-08 au
q 2.414859440073848 1.9419e-07 au
i 5.92954178104208 6.3171e-06 deg
node 56.70444338805569 7.308e-05 deg
peri 354.512128862688 8.2425e-05 deg
M 353.9620797738763 3.9717e-05 deg
tp 2459027.938903506676
(2020-Jun-27.43890351)
0.00018075 TDB
period 1635.994662477486
4.48
2.9882e-05
8.181e-08
d
yr
n .2200496176771324 4.0193e-09 deg/d
Q 3.019549291455761 3.6769e-08 au
  Orbit Determination Parameters
   # obs. used (total)      126  
   data-arc span      8969 days (24.56 yr)  
   first obs. used      1995-04-07  
   last obs. used      2019-10-27  
   planetary ephem.      DE431  
   SB-pert. ephem.      SB431-N16  
   condition code      0  
   norm. resid. RMS      .54967  
   source      ORB  
   producer      Otto Matic  
   solution date      2019-Nov-08 16:22:03  

Additional Information
 Earth MOID = 1.4257 au 
 Jupiter MOID = 2.32258 au 
 T_jup = 3.344 
[ hide covariance matrix ]
Orbital Elements at Epoch 2457706.5 (2016-Nov-14.0) TDB
Reference: JPL 11 (heliocentric ecliptic J2000)
 Element Value Uncertainty (1-sigma)   Units 
e .1105355257654053 6.6389e-08  
q 2.417110359477944 1.9692e-07 au
tp 2457383.606189808836
(2015-Dec-27.10618981)
0.0001672 TDB
node 56.73880588184033 7.3129e-05 deg
peri 352.9800226875532 8.2507e-05 deg
i 5.929143573708455 6.3201e-06 deg
  Orbit Determination Parameters
   # obs. used (total)      126  
   data-arc span      8969 days (24.56 yr)  
   first obs. used      1995-04-07  
   last obs. used      2019-10-27  
   planetary ephem.      DE431  
   SB-pert. ephem.      SB431-N16  
   condition code      0  
   norm. resid. RMS      .54967  
   source      ORB  
   producer      Otto Matic  
   solution date      2019-Nov-08 16:22:03  

Additional Information
 Jupiter MOID = 2.32258 au 
 T_jup = 3.344 
Orbit Covariance (6×6)
  e q tp node peri i
e 4.407539549383678E-15 -1.296203634975383E-14 -5.329382364728042E-12 7.846030555518327E-15 -1.196179321762234E-12 -3.478706401537258E-15
q -1.296203634975383E-14 3.87793632832315E-14 1.647536437617005E-11 -2.381331585299899E-14 3.724957309245345E-12 1.160818414119232E-14
tp -5.329382364728042E-12 1.647536437617005E-11 2.795499906623149E-8 -3.198513771169177E-11 6.463380865625562E-9 1.086900264031727E-11
node 7.846030555518327E-15 -2.381331585299899E-14 -3.198513771169177E-11 5.347916661613876E-9 -5.326274294805761E-9 -1.481092571977554E-10
peri -1.196179321762234E-12 3.724957309245345E-12 6.463380865625562E-9 -5.326274294805761E-9 6.807415862780173E-9 1.497999377510305E-10
i -3.478706401537258E-15 1.160818414119232E-14 1.086900264031727E-11 -1.481092571977554E-10 1.497999377510305E-10 3.994376880624171E-11

Ephemeris | Orbit Diagram | Orbital Elements | Mission Design | Physical Parameters | Discovery Circumstances ]

Physical Parameter Table
Parameter Symbol Value Units Sigma Reference Notes
absolute magnitude H 16.8   n/a MPO495222  

447580 (2006 TN106)          Discovered 2006-Oct-15 by CSS at Catalina
Reference: Last Updated: 2015-10-28
Ephemeris | Orbit Diagram | Orbital Elements | Mission Design | Physical Parameters | Discovery Circumstances ]
ABOUT SSD CREDITS/AWARDS PRIVACY/COPYRIGHT GLOSSARY LINKS
FirstGov 2020-Jul-04 10:02 UT
(server date/time)  
NASA Home Page
Site Manager:   Ryan S. Park
Webmaster  Alan B. Chamberlin